[[{"header":{"parameterUnit":"m.s-1","parameterCategory":2,"la1":30.2991,"la2":30.254,"lo1":-89.0895,"lo2":-89.0444,"dy":0.0017,"dx":0.0017,"nx":28,"ny":28,"refTime":"2024-03-12T03:00:00:Z","depth":"0","parameterNumber":2,"parameterNumberName":"U-component_of_CURRENTS"},"data":[0,0,0,0,0,0,0,0,0,0,0,0,0,0,0,0,0,0,0,0,0,0,0,0,0,0,0,0,0,0,0,0,0,0,0,0,0,0,0,0,0,0,0,0,0,0,0,0,0,0,0,0,0,0,0,0,0,0,-0.3504,-0.3505,0,-0.3644,-0.3646,-0.3648,-0.3684,-0.3683,-0.3682,-0.3681,-0.3704,-0.3705,-0.3707,0,0,0,0,0,0,0,0,0,0,0,0,0,-0.3333,-0.3335,-0.3504,-0.3505,-0.3507,-0.3644,-0.3646,-0.3648,-0.3684,-0.3683,-0.3682,-0.368,-0.3703,-0.3705,-0.3707,0,0,0,0,0,0,0,0,0,0,0,0,0,-0.3435,-0.3336,-0.3504,-0.354,-0.3545,-0.3644,-0.3646,-0.3649,-0.3684,-0.3683,-0.3681,-0.368,-0.3703,-0.3705,-0.3707,-0.3753,0,0,-0.3715,-0.3716,0,0,0,0,0,0,0,0,-0.3429,-0.3441,-0.3533,-0.3538,-0.3543,-0.3643,-0.3594,-0.3677,-0.3685,-0.3633,-0.3681,-0.3679,-0.3673,-0.3678,-0.3712,-0.3754,-0.3755,-0.3715,-0.3716,-0.3717,-0.3718,0,0,0,0,0,0,0,-0.3422,-0.3436,-0.3561,-0.3535,-0.3541,-0.3572,-0.3584,-0.3611,-0.3659,-0.3638,-0.364,-0.3653,-0.3675,-0.3709,-0.3712,-0.3755,-0.3715,-0.3717,-0.3718,-0.3719,-0.3839,-0.384,0,0,0,0,0,0,-0.34,-0.3429,-0.3557,-0.3565,-0.3479,-0.3576,-0.359,-0.3614,-0.3661,-0.3668,-0.3655,-0.3655,-0.3706,-0.3709,-0.3713,-0.3713,-0.3717,-0.3719,-0.3721,-0.3837,-0.3839,-0.3841,0,0,0,0,0,0,-0.3396,-0.341,-0.3551,-0.3498,-0.3518,-0.358,-0.3607,-0.3618,-0.3647,-0.3675,-0.3679,-0.3672,-0.3705,-0.3709,-0.3751,-0.3716,-0.372,-0.3723,-0.3835,-0.3838,-0.384,-0.3749,0,0,0,0,0,0,-0.3391,-0.3408,-0.3415,-0.3497,-0.352,-0.3605,-0.3609,-0.3622,-0.3657,-0.3659,-0.3692,-0.3693,-0.3704,-0.3748,-0.3754,-0.3719,-0.3724,-0.3833,-0.3836,-0.3839,-0.3749,-0.3748,-0.3747,0,0,0,0,0,-0.3384,-0.3404,-0.3415,-0.343,-0.3529,-0.3606,-0.3622,-0.3661,-0.3659,-0.368,-0.3712,-0.3692,-0.3772,-0.3752,-0.3758,-0.3723,-0.3831,-0.3835,-0.3839,-0.375,-0.3748,-0.3747,0,0,0,0,0,0,-0.3326,-0.3412,-0.3425,-0.3467,-0.3527,-0.3611,-0.3631,-0.3662,-0.3709,-0.37,-0.3723,-0.3728,-0.3755,-0.3774,-0.3751,-0.3777,-0.3795,-0.38,-0.3725,-0.3724,-0.3722,-0.3686,-0.3726,0,0,0,0,0,-0.3318,-0.3361,-0.3436,-0.3469,-0.3493,-0.3561,-0.3595,-0.3626,-0.3679,-0.3698,-0.3721,-0.375,-0.3782,-0.3779,-0.3822,-0.3832,-0.3781,-0.3818,-0.3816,-0.3814,-0.3796,-0.3728,-0.3715,-0.3854,-0.3854,-0.3854,0,0,-0.3306,-0.3356,-0.3379,-0.346,-0.3505,-0.3542,-0.3578,-0.3629,-0.3641,-0.3691,-0.3709,-0.3756,-0.3795,-0.3813,-0.3822,-0.3812,-0.3741,-0.3819,-0.3816,-0.3798,-0.373,-0.3715,-0.3702,-0.3857,-0.3856,-0.3856,0,0,-0.3301,-0.3343,-0.3372,-0.342,-0.3487,-0.3529,-0.354,-0.3618,-0.3628,-0.3672,-0.3707,-0.3736,-0.3785,-0.3795,-0.3807,-0.3829,-0.3754,-0.3843,-0.3771,-0.3705,-0.369,-0.3677,-0.3536,-0.3511,-0.3817,-0.3816,-0.3816,0,-0.328,-0.3321,-0.339,-0.3425,-0.3451,-0.3516,-0.3537,-0.3567,-0.3645,-0.3639,-0.3662,-0.3722,-0.3767,-0.3753,-0.3775,-0.3813,-0.3742,-0.3759,-0.3692,-0.3679,-0.3667,-0.3527,-0.35,-0.3812,-0.3813,-0.3813,-0.3814,0,-0.329,-0.3322,-0.3341,-0.3399,-0.344,-0.3473,-0.352,-0.3539,-0.3557,-0.3579,-0.3582,-0.3645,-0.3672,-0.369,-0.3743,-0.3686,-0.3649,-0.3707,-0.3672,-0.3646,-0.3501,-0.3475,-0.3807,-0.3808,-0.3809,-0.381,0,0,-0.3249,-0.3331,-0.333,-0.3345,-0.3424,-0.3456,-0.3463,-0.3482,-0.3451,-0.3499,-0.3448,-0.3529,-0.3552,-0.3573,-0.3619,-0.3564,-0.3429,-0.3595,-0.3593,-0.3408,-0.3204,-0.3131,-0.3095,-0.3461,-0.3458,-0.3455,-0.3112,0,-0.3228,-0.3255,-0.3311,-0.3332,-0.3351,-0.3405,-0.3405,-0.3425,-0.3425,-0.3393,-0.3409,-0.3403,-0.3504,-0.3502,-0.3473,-0.3459,-0.3367,-0.3512,-0.3299,-0.3291,-0.3192,-0.3067,-0.2976,-0.266,-0.3086,-0.3082,-0.3079,0,-0.3224,-0.3232,-0.3242,-0.3283,-0.3293,-0.3315,-0.33,-0.3312,-0.3285,-0.3277,-0.326,-0.3274,-0.3229,-0.332,-0.3198,-0.3279,-0.3239,-0.3203,-0.319,-0.3138,-0.3172,-0.2775,-0.2597,-0.2596,-0.3038,-0.3041,-0.3044,0,-0.3162,-0.3196,-0.3188,-0.3207,-0.3255,-0.3255,-0.3275,-0.3269,-0.3233,-0.3188,-0.3137,-0.3101,-0.306,-0.3011,-0.2991,-0.3073,-0.2808,-0.2912,-0.2775,-0.2766,-0.2655,-0.2643,-0.2416,-0.2788,-0.2789,-0.279,-0.2791,0,-0.3153,-0.3159,-0.3152,-0.3158,-0.3129,-0.3193,-0.315,-0.3165,-0.3114,-0.3041,-0.3077,-0.2979,-0.2988,-0.2868,-0.2866,-0.2701,-0.27,-0.27,-0.2666,-0.262,-0.261,-0.2586,-0.2653,-0.2777,-0.278,-0.2782,-0.2784,0,-0.3168,-0.3159,-0.3143,-0.3126,-0.3122,-0.3109,-0.3092,-0.3045,-0.302,-0.2913,-0.2886,-0.2825,-0.2677,-0.263,-0.25,-0.2509,-0.2327,-0.2333,-0.224,-0.2204,-0.212,-0.2188,-0.191,-0.1862,-0.2088,-0.2084,-0.2081,0,-0.3197,-0.318,-0.3105,-0.3072,-0.3082,-0.3052,-0.303,-0.3007,-0.2949,-0.2807,-0.2741,-0.2569,-0.2433,-0.2181,-0.2135,-0.1985,-0.2101,-0.1859,-0.2041,-0.2032,-0.2082,-0.2146,-0.2134,-0.1816,-0.1811,-0.1807,-0.1803,0,-0.3213,-0.3164,-0.3123,-0.303,-0.2989,-0.2918,-0.2881,-0.2799,-0.2741,-0.2628,-0.2424,-0.2275,-0.2078,-0.1884,-0.1747,-0.1695,-0.1825,-0.1768,-0.1783,-0.1845,-0.187,-0.1837,-0.2091,-0.1765,-0.1769,-0.1772,-0.1774,-0.1775,-0.3177,-0.313,-0.3019,-0.2943,-0.2879,-0.2731,-0.2605,-0.2553,-0.2374,-0.2161,-0.2138,-0.1911,-0.1787,-0.1569,-0.1496,-0.1401,-0.1512,-0.1428,-0.1491,-0.1541,-0.1559,-0.1698,-0.136,-0.1361,-0.1363,-0.1364,-0.1365,0,-0.305,-0.2996,-0.2937,-0.2752,-0.2612,-0.2619,-0.2449,-0.2271,-0.2015,-0.1942,-0.1749,-0.1559,-0.1379,-0.1328,-0.1226,-0.1168,-0.1186,-0.1161,-0.1246,-0.1238,-0.1338,-0.14,-0.1027,-0.1027,-0.1027,-0.1027,-0.1027,-0.1027,-0.2956,-0.2842,-0.2798,-0.2492,-0.2378,-0.2066,-0.1911,-0.1726,-0.1602,-0.1353,-0.1268,-0.1194,-0.1184,-0.1245,-0.1153,-0.1094,-0.1119,-0.1044,-0.1103,-0.1233,-0.1265,-0.1296,-0.1367,-0.0993,-0.0993,-0.0952,-0.0952,-0.0952]},{"header":{"parameterUnit":"m.s-1","parameterCategory":2,"la1":30.2991,"la2":30.254,"lo1":-89.0895,"lo2":-89.0444,"dy":0.0017,"dx":0.0017,"nx":28,"ny":28,"refTime":"2024-03-12T03:00:00:Z","depth":"0","parameterNumber":3,"parameterNumberName":"V-component_of_CURRENTS"},"data":[0,0,0,0,0,0,0,0,0,0,0,0,0,0,0,0,0,0,0,0,0,0,0,0,0,0,0,0,0,0,0,0,0,0,0,0,0,0,0,0,0,0,0,0,0,0,0,0,0,0,0,0,0,0,0,0,0,0,-0.0036,-0.0034,0,0.0196,0.0199,0.0202,0.0379,0.038,0.038,0.0381,0.0632,0.0638,0.0644,0,0,0,0,0,0,0,0,0,0,0,0,0,-0.0152,-0.0152,-0.0036,-0.0034,-0.0032,0.0195,0.0199,0.0203,0.0379,0.038,0.0381,0.0381,0.063,0.0637,0.0644,0,0,0,0,0,0,0,0,0,0,0,0,0,-0.0021,-0.0151,-0.0036,0.0076,0.0088,0.0194,0.0199,0.0204,0.0379,0.038,0.0381,0.0382,0.0628,0.0636,0.0645,0.0677,0,0,0.0673,0.0677,0,0,0,0,0,0,0,0,-0.0029,-0.0016,0.0058,0.0069,0.0082,0.0251,0.025,0.036,0.0378,0.0278,0.0381,0.0382,0.0499,0.0519,0.0573,0.0689,0.07,0.0673,0.0679,0.0683,0.0685,0,0,0,0,0,0,0,-0.0039,-0.0024,0.0066,0.0059,0.0074,0.0174,0.0193,0.0273,0.0387,0.0287,0.0298,0.0308,0.0508,0.0564,0.058,0.0704,0.0673,0.0681,0.0687,0.069,0.0921,0.0921,0,0,0,0,0,0,-0.0097,-0.0034,0.0058,0.0071,0.0017,0.0173,0.0196,0.0203,0.0386,0.0412,0.0307,0.0315,0.0548,0.057,0.059,0.0635,0.0683,0.0691,0.0696,0.092,0.0921,0.0922,0,0,0,0,0,0,-0.01,-0.0091,0.0049,0.0017,0.0041,0.0172,0.0181,0.0207,0.0259,0.0399,0.0428,0.0329,0.055,0.0577,0.0673,0.0646,0.0695,0.0703,0.0919,0.092,0.0921,0.0727,0,0,0,0,0,0,-0.0104,-0.0093,-0.01,0.0013,0.004,0.0091,0.0179,0.021,0.0259,0.0273,0.0428,0.0454,0.0553,0.0659,0.0682,0.0659,0.071,0.0918,0.0919,0.0921,0.0733,0.0722,0.0712,0,0,0,0,0,-0.0109,-0.0141,-0.0102,-0.009,0.0024,0.0089,0.0113,0.0218,0.0258,0.0272,0.0393,0.0449,0.0685,0.0667,0.0694,0.0672,0.0917,0.0919,0.0921,0.0737,0.0724,0.0713,0,0,0,0,0,0,-0.0191,-0.0124,-0.0078,-0.0085,-0.0012,0.0115,0.0126,0.0198,0.0306,0.0316,0.0459,0.0493,0.0569,0.0655,0.0632,0.075,0.0809,0.0816,0.0661,0.0649,0.0639,0.0618,0.0718,0,0,0,0,0,-0.0219,-0.0217,-0.0132,-0.013,-0.0115,0.0004,0.0043,0.0111,0.0213,0.0263,0.0373,0.0494,0.0599,0.0648,0.0754,0.0808,0.0858,0.0817,0.0807,0.0797,0.0803,0.0846,0.0838,0.0927,0.0927,0.0927,0,0,-0.0241,-0.021,-0.0202,-0.0146,-0.0085,-0.0056,0.0032,0.0068,0.0114,0.0268,0.0355,0.0458,0.0609,0.0684,0.0723,0.0747,0.0793,0.0799,0.0789,0.0801,0.0847,0.0838,0.0829,0.0928,0.0928,0.0928,0,0,-0.0305,-0.0275,-0.0299,-0.0259,-0.02,-0.0117,-0.0122,-0.0013,0.0049,0.0136,0.0264,0.0349,0.0507,0.0608,0.068,0.0676,0.074,0.0708,0.063,0.067,0.0661,0.0655,0.0665,0.0661,0.0696,0.0696,0.0696,0,-0.0331,-0.0346,-0.0291,-0.0309,-0.0269,-0.016,-0.0153,-0.0083,0.0055,0.0108,0.0136,0.0369,0.0472,0.0581,0.0589,0.0645,0.0675,0.0649,0.0649,0.0644,0.064,0.0653,0.0651,0.0687,0.0688,0.0689,0.069,0,-0.0412,-0.0414,-0.0435,-0.04,-0.035,-0.0337,-0.0239,-0.0182,-0.01,-0.0011,0.0093,0.0231,0.0378,0.0405,0.05,0.0539,0.0568,0.0622,0.0658,0.0618,0.0636,0.0637,0.0674,0.0677,0.068,0.0682,0,0,-0.0474,-0.0484,-0.049,-0.0465,-0.0396,-0.0349,-0.0303,-0.0199,-0.0136,-0.0059,0.0021,0.0155,0.0223,0.0312,0.0416,0.0441,0.0421,0.0509,0.0516,0.048,0.0483,0.0512,0.0517,0.0465,0.0465,0.0465,0.0487,0,-0.0534,-0.0593,-0.056,-0.0536,-0.0533,-0.0421,-0.035,-0.0248,-0.0155,-0.0058,0.0029,0.0147,0.0189,0.0262,0.0282,0.0414,0.0424,0.0409,0.0564,0.0569,0.0568,0.052,0.0557,0.0582,0.0489,0.0489,0.0489,0,-0.0609,-0.0629,-0.066,-0.0561,-0.0544,-0.0507,-0.0354,-0.0274,-0.0142,-0.0069,-0.0,0.0096,0.0161,0.0206,0.0306,0.0292,0.0373,0.0438,0.0442,0.0546,0.0602,0.0623,0.0589,0.0722,0.0492,0.0492,0.0492,0,-0.0654,-0.0665,-0.068,-0.0666,-0.0566,-0.0531,-0.044,-0.0297,-0.0208,-0.0085,-0.0031,0.0058,0.0122,0.0194,0.0303,0.0316,0.0401,0.0446,0.0535,0.0537,0.0642,0.0654,0.0731,0.0514,0.0514,0.0514,0.0514,0,-0.0698,-0.0693,-0.0717,-0.072,-0.0672,-0.0574,-0.0471,-0.0373,-0.0239,-0.016,-0.0048,-0.0001,0.0124,0.0189,0.0278,0.0386,0.0374,0.0512,0.0548,0.0575,0.0579,0.0766,0.0817,0.0515,0.0514,0.0514,0.0514,0,-0.0706,-0.0739,-0.0747,-0.0718,-0.0701,-0.0657,-0.051,-0.0436,-0.0303,-0.0214,-0.0183,-0.0048,0.0035,0.0146,0.0286,0.0368,0.055,0.0526,0.0529,0.0565,0.0777,0.0816,0.0925,0.1001,0.062,0.0621,0.0622,0,-0.0704,-0.0739,-0.0773,-0.0793,-0.0787,-0.0715,-0.0655,-0.0492,-0.0426,-0.0264,-0.0249,-0.0128,-0.0059,0.0137,0.0325,0.0479,0.0588,0.0624,0.0669,0.0783,0.0853,0.0869,0.0927,0.0715,0.0717,0.0718,0.0719,0,-0.0705,-0.075,-0.0783,-0.0849,-0.0848,-0.0777,-0.0707,-0.0671,-0.0493,-0.0428,-0.036,-0.0297,-0.0062,0.0153,0.0405,0.0501,0.0719,0.0655,0.0789,0.0942,0.0952,0.1044,0.0682,0.073,0.0729,0.0728,0.0727,0.0727,-0.0723,-0.0771,-0.0868,-0.0898,-0.0894,-0.0866,-0.0822,-0.0765,-0.068,-0.0533,-0.0476,-0.0253,0.0057,0.0422,0.0541,0.0868,0.0822,0.0974,0.1009,0.1012,0.1102,0.0742,0.0826,0.0825,0.0825,0.0825,0.0824,0,-0.0769,-0.0837,-0.0896,-0.0951,-0.0949,-0.0917,-0.0862,-0.0811,-0.0777,-0.0529,-0.0424,0.0059,0.0346,0.0688,0.1066,0.1227,0.1266,0.1296,0.1347,0.1389,0.1097,0.1121,0.1254,0.1254,0.1254,0.1254,0.1253,0.1253,-0.0805,-0.0912,-0.0951,-0.0998,-0.1007,-0.0979,-0.0957,-0.0905,-0.0713,-0.0342,0.0074,0.0409,0.0811,0.1204,0.153,0.1556,0.17,0.1658,0.1735,0.1559,0.1533,0.1507,0.1544,0.1764,0.1764,0.2033,0.2036,0.2038]}],[{"header":{"parameterUnit":"m.s-1","parameterCategory":2,"la1":30.2991,"la2":30.254,"lo1":-89.0895,"lo2":-89.0444,"dy":0.0017,"dx":0.0017,"nx":28,"ny":28,"refTime":"2024-03-12T03:00:00:Z","depth":"2","parameterNumber":2,"parameterNumberName":"U-component_of_CURRENTS"},"data":[0,0,0,0,0,0,0,0,0,0,0,0,0,0,0,0,0,0,0,0,0,0,0,0,0,0,0,0,0,0,0,0,0,0,0,0,0,0,0,0,0,0,0,0,0,0,0,0,0,0,0,0,0,0,0,0,0,0,-0.2489,-0.2489,0,-0.2551,-0.2552,-0.2553,-0.255,-0.2549,-0.2548,-0.2546,-0.2511,-0.2512,-0.2512,0,0,0,0,0,0,0,0,0,0,0,0,0,-0.2325,-0.2329,-0.2489,-0.2489,-0.249,-0.255,-0.2552,-0.2553,-0.255,-0.2549,-0.2547,-0.2546,-0.2511,-0.2512,-0.2512,0,0,0,0,0,0,0,0,0,0,0,0,0,-0.2397,-0.233,-0.2489,-0.2492,-0.2492,-0.255,-0.2552,-0.2554,-0.2551,-0.2549,-0.2547,-0.2545,-0.2511,-0.2512,-0.2512,-0.2556,0,0,-0.2514,-0.2514,0,0,0,0,0,0,0,0,-0.2393,-0.2404,-0.2491,-0.2492,-0.2492,-0.2536,-0.2481,-0.2548,-0.2551,-0.2534,-0.2546,-0.2544,-0.2509,-0.251,-0.2534,-0.2554,-0.2552,-0.2514,-0.2514,-0.2514,-0.2514,0,0,0,0,0,0,0,-0.2389,-0.2401,-0.2519,-0.2492,-0.2492,-0.2474,-0.2484,-0.2494,-0.2534,-0.2535,-0.2534,-0.2533,-0.2509,-0.2534,-0.2533,-0.2552,-0.2514,-0.2514,-0.2514,-0.2515,-0.2625,-0.2627,0,0,0,0,0,0,-0.2376,-0.2398,-0.2517,-0.252,-0.2431,-0.2479,-0.2489,-0.2528,-0.2536,-0.2535,-0.2535,-0.2533,-0.2534,-0.2533,-0.2532,-0.258,-0.2514,-0.2515,-0.2515,-0.2622,-0.2625,-0.2628,0,0,0,0,0,0,-0.2373,-0.2388,-0.2514,-0.2453,-0.2467,-0.2484,-0.2528,-0.2531,-0.2571,-0.2536,-0.2533,-0.2573,-0.2533,-0.2531,-0.256,-0.2578,-0.2515,-0.2515,-0.2619,-0.2623,-0.2627,-0.2678,0,0,0,0,0,0,-0.2369,-0.2388,-0.2426,-0.2454,-0.247,-0.2564,-0.2529,-0.2533,-0.257,-0.2569,-0.2568,-0.2562,-0.2531,-0.256,-0.2561,-0.2577,-0.2516,-0.2616,-0.2621,-0.2625,-0.2673,-0.2683,-0.2691,0,0,0,0,0,-0.2364,-0.2392,-0.2429,-0.2443,-0.252,-0.2566,-0.2575,-0.258,-0.2574,-0.2608,-0.2604,-0.2563,-0.2591,-0.2563,-0.2563,-0.258,-0.2613,-0.2619,-0.2625,-0.2668,-0.2681,-0.2691,0,0,0,0,0,0,-0.2341,-0.2396,-0.2435,-0.2485,-0.254,-0.2563,-0.258,-0.2604,-0.2635,-0.262,-0.26,-0.2596,-0.2629,-0.2614,-0.2584,-0.2632,-0.2595,-0.2601,-0.2628,-0.2639,-0.2649,-0.2609,-0.2516,0,0,0,0,0,-0.2361,-0.2381,-0.2462,-0.2492,-0.2532,-0.2576,-0.2599,-0.261,-0.2629,-0.2643,-0.2643,-0.2642,-0.2657,-0.2654,-0.2664,-0.2693,-0.2625,-0.2707,-0.2717,-0.2725,-0.2697,-0.2653,-0.2654,-0.2648,-0.2648,-0.2647,0,0,-0.2342,-0.2381,-0.2388,-0.2486,-0.2525,-0.2581,-0.2586,-0.262,-0.2646,-0.2631,-0.2664,-0.2682,-0.2679,-0.2707,-0.2719,-0.269,-0.2688,-0.2732,-0.2738,-0.2705,-0.2659,-0.2659,-0.2659,-0.2652,-0.2651,-0.265,0,0,-0.2316,-0.2382,-0.2412,-0.2467,-0.2538,-0.2572,-0.2597,-0.2659,-0.2676,-0.2725,-0.2718,-0.2742,-0.2774,-0.2762,-0.2763,-0.2836,-0.2751,-0.286,-0.2857,-0.2817,-0.2815,-0.2813,-0.2698,-0.2685,-0.2851,-0.2852,-0.2852,0,-0.2295,-0.2365,-0.2425,-0.2484,-0.2509,-0.2578,-0.2625,-0.2666,-0.2718,-0.2725,-0.2734,-0.2779,-0.2786,-0.2797,-0.283,-0.2848,-0.2794,-0.2808,-0.2823,-0.282,-0.2816,-0.2699,-0.2684,-0.2855,-0.2854,-0.2854,-0.2854,0,-0.2325,-0.2377,-0.2393,-0.249,-0.2539,-0.2571,-0.2649,-0.2692,-0.2723,-0.275,-0.2787,-0.2808,-0.2817,-0.285,-0.2863,-0.2863,-0.282,-0.2846,-0.2779,-0.2819,-0.2694,-0.2677,-0.2859,-0.2858,-0.2857,-0.2856,0,0,-0.2253,-0.2387,-0.2389,-0.2424,-0.2537,-0.2561,-0.2624,-0.2689,-0.2689,-0.2761,-0.2742,-0.2823,-0.2832,-0.2835,-0.2859,-0.284,-0.2781,-0.2842,-0.2839,-0.2698,-0.2637,-0.257,-0.2544,-0.2821,-0.2819,-0.2818,-0.2545,0,-0.2255,-0.234,-0.2408,-0.2449,-0.2502,-0.2569,-0.2607,-0.266,-0.2698,-0.2699,-0.2734,-0.274,-0.2828,-0.2821,-0.2829,-0.2795,-0.2746,-0.2848,-0.2643,-0.2635,-0.2548,-0.2527,-0.2397,-0.2143,-0.2528,-0.2525,-0.2523,0,-0.226,-0.2316,-0.2377,-0.2421,-0.2449,-0.2478,-0.2513,-0.2554,-0.2594,-0.2613,-0.2644,-0.2667,-0.2666,-0.2724,-0.2663,-0.273,-0.2685,-0.2654,-0.2643,-0.2545,-0.2539,-0.2175,-0.2097,-0.2494,-0.2497,-0.2499,-0.2501,0,-0.2151,-0.2259,-0.2289,-0.2316,-0.2413,-0.2422,-0.2463,-0.2523,-0.2526,-0.2543,-0.2522,-0.2551,-0.2519,-0.2514,-0.2514,-0.2573,-0.2401,-0.2458,-0.2334,-0.2325,-0.215,-0.213,-0.2377,-0.2377,-0.2378,-0.2378,-0.2379,0,-0.208,-0.2079,-0.2241,-0.2239,-0.2249,-0.2345,-0.2335,-0.2372,-0.2399,-0.237,-0.2462,-0.2419,-0.2475,-0.2419,-0.2427,-0.2313,-0.2326,-0.2292,-0.2255,-0.2165,-0.215,-0.2424,-0.2434,-0.2368,-0.237,-0.2372,-0.2374,0,-0.1892,-0.2008,-0.2028,-0.215,-0.219,-0.2177,-0.2251,-0.2238,-0.2292,-0.2241,-0.2236,-0.227,-0.2207,-0.2224,-0.2152,-0.2159,-0.2079,-0.2035,-0.1895,-0.1849,-0.2033,-0.2049,-0.1823,-0.1818,-0.1814,-0.1811,-0.1808,0,-0.179,-0.1806,-0.1937,-0.1961,-0.2001,-0.2045,-0.2073,-0.2158,-0.2142,-0.215,-0.2083,-0.2041,-0.1996,-0.186,-0.184,-0.175,-0.1902,-0.1595,-0.1708,-0.1991,-0.1977,-0.2,-0.202,-0.1463,-0.1457,-0.1453,-0.145,0,-0.1601,-0.1662,-0.1708,-0.1781,-0.1815,-0.1837,-0.1879,-0.1864,-0.1939,-0.1922,-0.1865,-0.1832,-0.1713,-0.1583,-0.1498,-0.1464,-0.1613,-0.1503,-0.1791,-0.1666,-0.1642,-0.1634,-0.1666,-0.1411,-0.1415,-0.1418,-0.142,-0.1421,-0.1469,-0.1461,-0.157,-0.1596,-0.1638,-0.1627,-0.1604,-0.1657,-0.1637,-0.1607,-0.1629,-0.1543,-0.1504,-0.1309,-0.1222,-0.1175,-0.1305,-0.1296,-0.1312,-0.1333,-0.1382,-0.1359,-0.1076,-0.1078,-0.108,-0.1081,-0.1082,0,-0.1341,-0.1365,-0.1389,-0.1424,-0.1388,-0.1462,-0.1474,-0.1441,-0.1409,-0.1396,-0.1361,-0.1189,-0.108,-0.1055,-0.0905,-0.0876,-0.0907,-0.0863,-0.0916,-0.0953,-0.0987,-0.1025,-0.062,-0.0618,-0.0617,-0.0616,0,0,-0.1274,-0.1253,-0.127,-0.1191,-0.1204,-0.114,-0.1128,-0.1104,-0.1088,-0.1038,-0.1,-0.105,-0.1024,-0.0831,-0.0772,-0.0667,-0.081,-0.0634,-0.1004,-0.1103,-0.1135,-0.1229,-0.1327,0,0,0,0,0]},{"header":{"parameterUnit":"m.s-1","parameterCategory":2,"la1":30.2991,"la2":30.254,"lo1":-89.0895,"lo2":-89.0444,"dy":0.0017,"dx":0.0017,"nx":28,"ny":28,"refTime":"2024-03-12T03:00:00:Z","depth":"2","parameterNumber":3,"parameterNumberName":"V-component_of_CURRENTS"},"data":[0,0,0,0,0,0,0,0,0,0,0,0,0,0,0,0,0,0,0,0,0,0,0,0,0,0,0,0,0,0,0,0,0,0,0,0,0,0,0,0,0,0,0,0,0,0,0,0,0,0,0,0,0,0,0,0,0,0,-0.0409,-0.0407,0,-0.0255,-0.0253,-0.0251,-0.013,-0.0129,-0.0128,-0.0127,0.0049,0.0053,0.0057,0,0,0,0,0,0,0,0,0,0,0,0,0,-0.049,-0.0489,-0.0409,-0.0407,-0.0405,-0.0255,-0.0253,-0.025,-0.013,-0.0129,-0.0128,-0.0127,0.0048,0.0052,0.0057,0,0,0,0,0,0,0,0,0,0,0,0,0,-0.0405,-0.0489,-0.0409,-0.033,-0.0321,-0.0255,-0.0252,-0.0249,-0.013,-0.0129,-0.0128,-0.0126,0.0046,0.0052,0.0058,0.0067,0,0,0.0075,0.0078,0,0,0,0,0,0,0,0,-0.041,-0.0401,-0.0343,-0.0335,-0.0326,-0.0213,-0.0216,-0.0144,-0.0131,-0.02,-0.0127,-0.0126,-0.0039,-0.0026,0.0004,0.0075,0.0083,0.0076,0.0079,0.0082,0.0084,0,0,0,0,0,0,0,-0.0416,-0.0407,-0.0345,-0.0341,-0.0331,-0.0264,-0.0252,-0.0201,-0.0126,-0.0194,-0.0185,-0.0173,-0.0034,-0.0002,0.0009,0.0085,0.0076,0.0081,0.0085,0.0087,0.0248,0.0249,0,0,0,0,0,0,-0.0448,-0.0413,-0.035,-0.034,-0.0368,-0.0265,-0.025,-0.0248,-0.0127,-0.0108,-0.0175,-0.0168,-0.0013,0.0002,0.0015,0.007,0.0082,0.0087,0.0091,0.0247,0.0248,0.0249,0,0,0,0,0,0,-0.0451,-0.0445,-0.0356,-0.0375,-0.0359,-0.0266,-0.0264,-0.0246,-0.0206,-0.0113,-0.0093,-0.0153,-0.0011,0.0007,0.007,0.0077,0.009,0.0095,0.0246,0.0248,0.0249,0.0157,0,0,0,0,0,0,-0.0454,-0.0447,-0.0443,-0.0378,-0.0359,-0.0323,-0.0265,-0.0244,-0.0203,-0.0193,-0.0089,-0.0071,-0.0009,0.0061,0.0076,0.0085,0.01,0.0245,0.0247,0.0248,0.0159,0.0154,0.0151,0,0,0,0,0,-0.0458,-0.0475,-0.0444,-0.0435,-0.0363,-0.0323,-0.0308,-0.0234,-0.0204,-0.0192,-0.0115,-0.0074,0.0082,0.0066,0.0083,0.0094,0.0245,0.0246,0.0248,0.016,0.0155,0.0151,0,0,0,0,0,0,-0.0505,-0.0463,-0.0428,-0.0429,-0.0379,-0.0304,-0.0291,-0.0242,-0.0173,-0.0164,-0.0071,-0.0048,0.0015,0.0065,0.0045,0.0149,0.0173,0.0178,0.01,0.0096,0.0092,0.0068,0.0105,0,0,0,0,0,-0.0517,-0.0522,-0.046,-0.046,-0.0444,-0.0367,-0.0338,-0.0294,-0.0231,-0.0198,-0.0124,-0.0042,0.0034,0.0071,0.0141,0.0184,0.0225,0.0208,0.0204,0.02,0.0194,0.0266,0.0268,0.0255,0.0255,0.0255,0,0,-0.0533,-0.0514,-0.0511,-0.047,-0.0429,-0.0409,-0.0346,-0.0321,-0.0291,-0.0193,-0.0135,-0.0057,0.0044,0.0105,0.0138,0.0147,0.0222,0.0202,0.0198,0.0195,0.0268,0.0269,0.027,0.0256,0.0256,0.0256,0,0,-0.0584,-0.0556,-0.0575,-0.0544,-0.0498,-0.0448,-0.0447,-0.0375,-0.0328,-0.0272,-0.0182,-0.0107,-0.0003,0.0076,0.0129,0.0143,0.02,0.0172,0.013,0.0199,0.02,0.0202,0.023,0.0235,0.0168,0.0168,0.0168,0,-0.0601,-0.0613,-0.0571,-0.0579,-0.0556,-0.0474,-0.0475,-0.042,-0.0332,-0.0291,-0.0268,-0.009,-0.0016,0.0082,0.0094,0.0132,0.017,0.0133,0.0191,0.0194,0.0197,0.0226,0.0233,0.0164,0.0164,0.0165,0.0165,0,-0.0655,-0.066,-0.0675,-0.0651,-0.062,-0.0616,-0.0541,-0.05,-0.0438,-0.0367,-0.0268,-0.0161,-0.0054,-0.0014,0.0044,0.0115,0.0133,0.0175,0.0192,0.0192,0.0223,0.0231,0.0158,0.0159,0.016,0.0161,0,0,-0.0711,-0.0711,-0.0715,-0.0715,-0.066,-0.0645,-0.0603,-0.0529,-0.0489,-0.0398,-0.0337,-0.0204,-0.0139,-0.0074,0.0014,0.0075,0.0118,0.0125,0.013,0.0132,0.0245,0.0258,0.0269,0.0173,0.0175,0.0176,0.0248,0,-0.0759,-0.0801,-0.0777,-0.079,-0.0796,-0.0719,-0.0684,-0.0606,-0.052,-0.0443,-0.0322,-0.0231,-0.0161,-0.0111,-0.0039,0.0094,0.0141,0.0093,0.0264,0.0268,0.0264,0.028,0.026,0.0325,0.0256,0.0258,0.0259,0,-0.0816,-0.0834,-0.087,-0.0856,-0.085,-0.084,-0.0762,-0.0717,-0.0587,-0.0529,-0.042,-0.0308,-0.019,-0.0142,0.0051,0.0019,0.0116,0.0204,0.021,0.0261,0.0298,0.0323,0.0343,0.0273,0.0272,0.0271,0.027,0,-0.0881,-0.0898,-0.0931,-0.0926,-0.0893,-0.0887,-0.0852,-0.0741,-0.0699,-0.0577,-0.0531,-0.0369,-0.0286,-0.0138,0.0052,0.0055,0.0252,0.028,0.0374,0.0375,0.0412,0.0414,0.0396,0.0396,0.0396,0.0396,0.0395,0,-0.0946,-0.0973,-0.0968,-0.0989,-0.1006,-0.0954,-0.0939,-0.0881,-0.0789,-0.0718,-0.0582,-0.0491,-0.0277,-0.012,0.0031,0.0228,0.0237,0.0366,0.0404,0.0378,0.0376,0.0383,0.038,0.0398,0.0398,0.0397,0.0397,0,-0.1019,-0.102,-0.1063,-0.1054,-0.1047,-0.1061,-0.1021,-0.0988,-0.0908,-0.0815,-0.0781,-0.0583,-0.0372,-0.0165,0.0085,0.02,0.0383,0.0446,0.0378,0.0408,0.0455,0.0447,0.0547,0.0548,0.0549,0.055,0.0551,0,-0.1054,-0.1086,-0.1122,-0.1143,-0.1147,-0.1149,-0.113,-0.1062,-0.1008,-0.0844,-0.079,-0.0586,-0.0394,-0.0064,0.0171,0.041,0.0425,0.0509,0.0516,0.0448,0.0475,0.0466,0.0457,0.0518,0.0519,0.0519,0.0519,0,-0.1106,-0.1132,-0.1167,-0.1219,-0.1229,-0.1225,-0.1187,-0.1166,-0.1037,-0.0944,-0.0754,-0.0598,-0.0282,0.0002,0.0277,0.0413,0.0467,0.0523,0.0502,0.0479,0.0427,0.0451,0.0443,0.0523,0.0522,0.0522,0.0522,0.0522,-0.1131,-0.1178,-0.1225,-0.1271,-0.1286,-0.1258,-0.1228,-0.115,-0.105,-0.0847,-0.0715,-0.046,-0.0228,0.0191,0.0374,0.0523,0.0532,0.0581,0.0578,0.0575,0.0555,0.0507,0.0612,0.0612,0.0612,0.0612,0.0612,0,-0.114,-0.1195,-0.1254,-0.1287,-0.129,-0.1292,-0.1222,-0.1146,-0.0997,-0.0811,-0.0608,-0.0305,-0.0012,0.0202,0.0453,0.0602,0.0581,0.061,0.0567,0.0564,0.0561,0.0538,0.0593,0.0593,0.0593,0.0593,0,0,-0.1141,-0.1201,-0.1243,-0.1257,-0.1273,-0.123,-0.1179,-0.1055,-0.0919,-0.0695,-0.0507,-0.0256,0.0002,0.0184,0.0367,0.0484,0.0471,0.0479,0.0483,0.0406,0.0401,0.0537,0.0498,0,0,0,0,0]}],[{"header":{"parameterUnit":"m.s-1","parameterCategory":2,"la1":30.2991,"la2":30.254,"lo1":-89.0895,"lo2":-89.0444,"dy":0.0017,"dx":0.0017,"nx":28,"ny":28,"refTime":"2024-03-12T03:00:00:Z","depth":"4","parameterNumber":2,"parameterNumberName":"U-component_of_CURRENTS"},"data":[0,0,0,0,0,0,0,0,0,0,0,0,0,0,0,0,0,0,0,0,0,0,0,0,0,0,0,0,0,0,0,0,0,0,0,0,0,0,0,0,0,0,0,0,0,0,0,0,0,0,0,0,0,0,0,0,0,0,-0.1283,-0.1285,0,-0.134,-0.134,-0.134,-0.133,-0.133,-0.133,-0.1329,-0.1301,-0.13,-0.13,0,0,0,0,0,0,0,0,0,0,0,0,0,-0.1218,-0.1219,-0.1283,-0.1285,-0.1286,-0.134,-0.134,-0.134,-0.1331,-0.133,-0.133,-0.1329,-0.1301,-0.13,-0.13,0,0,0,0,0,0,0,0,0,0,0,0,0,-0.1252,-0.1219,-0.1283,-0.1292,-0.1294,-0.134,-0.134,-0.134,-0.1331,-0.133,-0.1329,-0.1329,-0.1301,-0.13,-0.13,-0.1308,0,0,-0.1298,-0.1298,0,0,0,0,0,0,0,0,-0.125,-0.1253,-0.129,-0.1292,-0.1294,-0.1333,-0.1307,-0.1327,-0.1331,-0.131,-0.1329,-0.1329,-0.1308,-0.1307,-0.1311,-0.1307,-0.1305,-0.1298,-0.1298,-0.1297,-0.1297,0,0,0,0,0,0,0,-0.1247,-0.1251,-0.1299,-0.1291,-0.1294,-0.1312,-0.1315,-0.1311,-0.1305,-0.1312,-0.1313,-0.133,-0.1308,-0.1312,-0.131,-0.1305,-0.1298,-0.1297,-0.1297,-0.1297,-0.1378,-0.138,0,0,0,0,0,0,-0.1251,-0.1249,-0.1297,-0.1301,-0.1277,-0.1314,-0.1317,-0.1316,-0.1307,-0.1308,-0.133,-0.1329,-0.1313,-0.1311,-0.1309,-0.138,-0.1297,-0.1297,-0.1296,-0.1375,-0.1378,-0.1381,0,0,0,0,0,0,-0.1249,-0.1254,-0.1295,-0.1283,-0.129,-0.1316,-0.1315,-0.1318,-0.1342,-0.1323,-0.1321,-0.1355,-0.1312,-0.131,-0.1342,-0.1376,-0.1297,-0.1296,-0.1372,-0.1376,-0.138,-0.1483,0,0,0,0,0,0,-0.1247,-0.1253,-0.1262,-0.1282,-0.1291,-0.1337,-0.1316,-0.1319,-0.1355,-0.1354,-0.1343,-0.1339,-0.1312,-0.1344,-0.1342,-0.1374,-0.1296,-0.1369,-0.1374,-0.1378,-0.1476,-0.1489,-0.1501,0,0,0,0,0,-0.1244,-0.126,-0.1262,-0.1269,-0.1299,-0.1339,-0.1344,-0.1357,-0.1357,-0.1374,-0.1382,-0.134,-0.1371,-0.1346,-0.1343,-0.1376,-0.1367,-0.1373,-0.1378,-0.147,-0.1487,-0.1501,0,0,0,0,0,0,-0.124,-0.1262,-0.1264,-0.1286,-0.1318,-0.134,-0.1363,-0.1375,-0.1396,-0.14,-0.1374,-0.1371,-0.1411,-0.1387,-0.1359,-0.1416,-0.1362,-0.1367,-0.1433,-0.1448,-0.146,-0.1458,-0.1295,0,0,0,0,0,-0.1245,-0.1257,-0.1287,-0.1307,-0.1323,-0.1348,-0.137,-0.1385,-0.1406,-0.1415,-0.1422,-0.1425,-0.1431,-0.1435,-0.1437,-0.1469,-0.1432,-0.149,-0.1502,-0.1513,-0.1511,-0.1502,-0.1512,-0.14,-0.1399,-0.1399,0,0,-0.125,-0.1265,-0.1273,-0.1308,-0.1328,-0.1364,-0.1358,-0.1404,-0.144,-0.1408,-0.1468,-0.1472,-0.1451,-0.149,-0.1505,-0.1474,-0.1528,-0.152,-0.1529,-0.1521,-0.1509,-0.1519,-0.1528,-0.1403,-0.1403,-0.1402,0,0,-0.1265,-0.128,-0.1294,-0.1326,-0.1374,-0.1395,-0.1416,-0.1464,-0.1489,-0.1547,-0.1537,-0.1571,-0.1585,-0.1585,-0.1579,-0.1663,-0.1597,-0.1666,-0.1722,-0.1714,-0.1722,-0.1729,-0.17,-0.1704,-0.1669,-0.1669,-0.1669,0,-0.1273,-0.1286,-0.131,-0.134,-0.1369,-0.1412,-0.1444,-0.1485,-0.1547,-0.1569,-0.1578,-0.163,-0.1626,-0.1653,-0.1694,-0.1689,-0.1665,-0.1664,-0.1728,-0.1734,-0.1739,-0.1708,-0.171,-0.1675,-0.1674,-0.1674,-0.1673,0,-0.1291,-0.1317,-0.1334,-0.1376,-0.1417,-0.1456,-0.1515,-0.1571,-0.1614,-0.1646,-0.171,-0.173,-0.1748,-0.1769,-0.1758,-0.1803,-0.1769,-0.1745,-0.1684,-0.1756,-0.1719,-0.172,-0.1683,-0.1681,-0.1679,-0.1678,0,0,-0.1255,-0.1329,-0.1335,-0.1352,-0.1437,-0.1463,-0.1546,-0.1607,-0.1638,-0.1727,-0.1761,-0.1827,-0.1845,-0.1842,-0.1847,-0.1863,-0.1897,-0.1834,-0.183,-0.1794,-0.1866,-0.1728,-0.1714,-0.1885,-0.1885,-0.1886,-0.1825,0,-0.1255,-0.13,-0.1348,-0.14,-0.1423,-0.1497,-0.1557,-0.1628,-0.1686,-0.1739,-0.1793,-0.1827,-0.1868,-0.1878,-0.1913,-0.1897,-0.1903,-0.1914,-0.181,-0.1807,-0.1666,-0.1712,-0.1888,-0.1825,-0.1825,-0.1825,-0.1825,0,-0.1239,-0.1271,-0.1316,-0.1384,-0.1401,-0.145,-0.1528,-0.1592,-0.1684,-0.1725,-0.1797,-0.1829,-0.1897,-0.1902,-0.1935,-0.1941,-0.1917,-0.1905,-0.1901,-0.1731,-0.1669,-0.1738,-0.1825,-0.1825,-0.1825,-0.1825,-0.1825,0,-0.1157,-0.1239,-0.1266,-0.1294,-0.139,-0.1427,-0.1487,-0.1584,-0.163,-0.1716,-0.1746,-0.1826,-0.1856,-0.1877,-0.1894,-0.191,-0.189,-0.1891,-0.1741,-0.173,-0.1825,-0.1818,-0.1886,-0.1886,-0.1886,-0.1886,-0.1886,0,-0.1103,-0.1123,-0.1231,-0.1238,-0.128,-0.1371,-0.1419,-0.1492,-0.1583,-0.1628,-0.1731,-0.1765,-0.1853,-0.1866,-0.1876,-0.1807,-0.1872,-0.1747,-0.1706,-0.1871,-0.1871,-0.1825,-0.1818,-0.1884,-0.1884,-0.1885,-0.1885,0,-0.0991,-0.1062,-0.1096,-0.1199,-0.1238,-0.1264,-0.1384,-0.1414,-0.1515,-0.1577,-0.1606,-0.1716,-0.1732,-0.1777,-0.178,-0.1749,-0.1707,-0.1653,-0.1813,-0.1782,-0.1557,-0.1558,-0.1485,-0.148,-0.1475,-0.1471,-0.1468,0,-0.0936,-0.0944,-0.1052,-0.1076,-0.1123,-0.1191,-0.1241,-0.1366,-0.1408,-0.1539,-0.1552,-0.1602,-0.1661,-0.1559,-0.1616,-0.1577,-0.1565,-0.1525,-0.1573,-0.155,-0.1518,-0.1525,-0.1531,-0.1461,-0.146,-0.1459,-0.1457,0,-0.0836,-0.0883,-0.0915,-0.097,-0.1022,-0.1077,-0.1161,-0.1185,-0.1329,-0.1422,-0.1459,-0.147,-0.1463,-0.1476,-0.1429,-0.1419,-0.1553,-0.1478,-0.1488,-0.1533,-0.152,-0.1494,-0.1505,-0.1442,-0.1444,-0.1445,-0.1446,0,-0.0772,-0.0774,-0.0831,-0.0861,-0.092,-0.0958,-0.102,-0.1084,-0.1149,-0.1312,-0.1313,-0.138,-0.1453,-0.1388,-0.1364,-0.132,-0.1317,-0.1291,-0.1312,-0.133,-0.1307,-0.1268,-0.1072,0,0,0,0,0,-0.0712,-0.0706,-0.0726,-0.0767,-0.0814,-0.0856,-0.0966,-0.1038,-0.118,-0.1168,-0.1245,-0.1242,-0.1225,-0.1254,-0.1175,-0.1275,-0.1307,-0.1176,-0.1286,-0.1354,-0.1372,-0.136,0,0,0,0,0,0,-0.0677,-0.0692,-0.0694,-0.0676,-0.0685,-0.0745,-0.0815,-0.0916,-0.0926,-0.1066,-0.1057,-0.1147,-0.1136,-0.1236,-0.114,-0.1144,-0.1185,-0.1212,-0.1209,-0.1344,-0.136,-0.1375,-0.1369,0,0,0,0,0]},{"header":{"parameterUnit":"m.s-1","parameterCategory":2,"la1":30.2991,"la2":30.254,"lo1":-89.0895,"lo2":-89.0444,"dy":0.0017,"dx":0.0017,"nx":28,"ny":28,"refTime":"2024-03-12T03:00:00:Z","depth":"4","parameterNumber":3,"parameterNumberName":"V-component_of_CURRENTS"},"data":[0,0,0,0,0,0,0,0,0,0,0,0,0,0,0,0,0,0,0,0,0,0,0,0,0,0,0,0,0,0,0,0,0,0,0,0,0,0,0,0,0,0,0,0,0,0,0,0,0,0,0,0,0,0,0,0,0,0,-0.0426,-0.0425,0,-0.0388,-0.0388,-0.0387,-0.0363,-0.0363,-0.0363,-0.0362,-0.0339,-0.0339,-0.0338,0,0,0,0,0,0,0,0,0,0,0,0,0,-0.0432,-0.0433,-0.0426,-0.0425,-0.0425,-0.0388,-0.0387,-0.0387,-0.0363,-0.0363,-0.0363,-0.0362,-0.0339,-0.0339,-0.0338,0,0,0,0,0,0,0,0,0,0,0,0,0,-0.0417,-0.0433,-0.0426,-0.0407,-0.0405,-0.0388,-0.0387,-0.0387,-0.0364,-0.0363,-0.0363,-0.0362,-0.0339,-0.0339,-0.0338,-0.0345,0,0,-0.0337,-0.0337,0,0,0,0,0,0,0,0,-0.0418,-0.0418,-0.041,-0.0408,-0.0406,-0.0378,-0.0381,-0.0373,-0.0364,-0.0381,-0.0362,-0.0362,-0.0353,-0.0351,-0.0347,-0.0344,-0.0343,-0.0337,-0.0337,-0.0336,-0.0336,0,0,0,0,0,0,0,-0.042,-0.0419,-0.0413,-0.041,-0.0407,-0.0384,-0.0382,-0.0379,-0.0372,-0.038,-0.0377,-0.037,-0.0352,-0.0348,-0.0347,-0.0342,-0.0337,-0.0336,-0.0336,-0.0336,-0.0323,-0.0323,0,0,0,0,0,0,-0.0423,-0.042,-0.0414,-0.0411,-0.0409,-0.0385,-0.0382,-0.0389,-0.0371,-0.0368,-0.0371,-0.0369,-0.0349,-0.0347,-0.0346,-0.0336,-0.0336,-0.0336,-0.0336,-0.0323,-0.0323,-0.0323,0,0,0,0,0,0,-0.0424,-0.0424,-0.0416,-0.0412,-0.0409,-0.0385,-0.0393,-0.0388,-0.0387,-0.0364,-0.0361,-0.0373,-0.0349,-0.0347,-0.0342,-0.0335,-0.0336,-0.0335,-0.0323,-0.0323,-0.0323,-0.0326,0,0,0,0,0,0,-0.0425,-0.0425,-0.0434,-0.0413,-0.041,-0.0416,-0.0393,-0.0388,-0.0382,-0.038,-0.0365,-0.0362,-0.0348,-0.0343,-0.0341,-0.0334,-0.0335,-0.0323,-0.0323,-0.0323,-0.0326,-0.0326,-0.0326,0,0,0,0,0,-0.0425,-0.0441,-0.0435,-0.0434,-0.0423,-0.0416,-0.0413,-0.0394,-0.0383,-0.039,-0.0372,-0.0363,-0.0341,-0.0343,-0.0341,-0.0334,-0.0323,-0.0323,-0.0323,-0.0326,-0.0326,-0.0326,0,0,0,0,0,0,-0.0449,-0.0439,-0.0433,-0.0445,-0.0435,-0.0412,-0.0414,-0.04,-0.0392,-0.039,-0.0367,-0.0363,-0.0354,-0.0348,-0.035,-0.033,-0.0329,-0.0329,-0.0332,-0.0332,-0.0332,-0.0338,-0.0334,0,0,0,0,0,-0.0459,-0.047,-0.0453,-0.0464,-0.0461,-0.044,-0.0434,-0.0423,-0.0409,-0.0405,-0.0387,-0.037,-0.0352,-0.0347,-0.0335,-0.0331,-0.0292,-0.0324,-0.0324,-0.0324,-0.0328,-0.0245,-0.0237,-0.0322,-0.0322,-0.0322,0,0,-0.047,-0.0467,-0.0472,-0.047,-0.0461,-0.0463,-0.0437,-0.0436,-0.0433,-0.0404,-0.0397,-0.0374,-0.0352,-0.0339,-0.0334,-0.0333,-0.0281,-0.0324,-0.0324,-0.0328,-0.0244,-0.0235,-0.0228,-0.0322,-0.0322,-0.0322,0,0,-0.0499,-0.0498,-0.0516,-0.051,-0.0501,-0.0486,-0.0489,-0.0468,-0.0455,-0.0449,-0.0416,-0.0382,-0.0377,-0.0339,-0.0324,-0.032,-0.0284,-0.0325,-0.0329,-0.0248,-0.024,-0.0232,-0.0174,-0.0161,-0.0324,-0.0324,-0.0324,0,-0.0514,-0.0535,-0.0519,-0.0532,-0.0531,-0.05,-0.0515,-0.0496,-0.0474,-0.046,-0.0453,-0.0392,-0.037,-0.0326,-0.0323,-0.0317,-0.0278,-0.0329,-0.0246,-0.0238,-0.023,-0.0172,-0.0157,-0.0324,-0.0324,-0.0324,-0.0324,0,-0.0548,-0.0567,-0.0577,-0.0584,-0.058,-0.0589,-0.056,-0.0551,-0.053,-0.0501,-0.0458,-0.0408,-0.0373,-0.0352,-0.034,-0.0275,-0.0267,-0.0253,-0.0243,-0.0221,-0.0162,-0.0147,-0.0325,-0.0325,-0.0325,-0.0325,0,0,-0.058,-0.0599,-0.0606,-0.0621,-0.061,-0.0613,-0.0604,-0.0584,-0.0573,-0.0525,-0.0496,-0.0434,-0.0395,-0.0375,-0.0333,-0.0258,-0.0164,-0.0241,-0.0237,-0.0178,0.0001,-0.003,-0.0016,-0.0133,-0.013,-0.0128,0.002,0,-0.0616,-0.0657,-0.0653,-0.0687,-0.0702,-0.0676,-0.067,-0.0642,-0.0609,-0.057,-0.0485,-0.0445,-0.0407,-0.0384,-0.0302,-0.0199,-0.0125,-0.0206,-0.0034,-0.0029,-0.0054,0.0,-0.012,0.0031,0.0035,0.0037,0.0039,0,-0.0651,-0.0674,-0.0719,-0.0741,-0.0745,-0.0759,-0.0744,-0.0736,-0.0666,-0.0638,-0.0566,-0.05,-0.0388,-0.0362,-0.0156,-0.0212,-0.0117,-0.0028,-0.002,-0.0039,-0.0032,0.0006,0.0067,0.0065,0.0063,0.0061,0.0059,0,-0.0679,-0.0722,-0.0763,-0.0769,-0.0782,-0.0799,-0.0803,-0.0758,-0.0738,-0.0676,-0.064,-0.0512,-0.0434,-0.0286,-0.0115,-0.0131,0.0113,0.0117,0.0184,0.0182,0.0166,0.0157,0.0261,0.0261,0.0261,0.026,0.026,0,-0.071,-0.0747,-0.0786,-0.0806,-0.0849,-0.0843,-0.0862,-0.0849,-0.0799,-0.0754,-0.0676,-0.0594,-0.0408,-0.0249,-0.011,0.0085,0.0122,0.0195,0.0227,0.0159,0.0147,0.0177,0.0166,0.0266,0.0265,0.0264,0.0263,0,-0.0729,-0.0757,-0.0809,-0.0849,-0.0866,-0.0897,-0.0909,-0.0898,-0.0865,-0.08,-0.0775,-0.0627,-0.0425,-0.024,0.0012,0.0094,0.0277,0.0331,0.0238,0.026,0.029,0.0276,0.0426,0.0427,0.0427,0.0427,0.0427,0,-0.0736,-0.0766,-0.0843,-0.0873,-0.09,-0.0939,-0.0946,-0.0935,-0.0905,-0.0797,-0.0746,-0.0569,-0.045,-0.0106,0.0053,0.0304,0.0327,0.0396,0.0349,0.0294,0.0312,0.0297,0.0283,0.0428,0.0428,0.0428,0.0428,0,-0.074,-0.078,-0.082,-0.0891,-0.0928,-0.0951,-0.0961,-0.0939,-0.0885,-0.0858,-0.0678,-0.0517,-0.0302,-0.008,0.0098,0.0277,0.0338,0.04,0.04,0.0356,0.0298,0.0311,0.0298,0.0429,0.0429,0.0429,0.0429,0,-0.0738,-0.0774,-0.0835,-0.089,-0.0936,-0.0936,-0.0948,-0.088,-0.0843,-0.072,-0.0655,-0.0443,-0.0322,-0.0092,0.0087,0.024,0.027,0.0296,0.0302,0.0303,0.0203,0.0107,0.0222,0,0,0,0,0,-0.0722,-0.0762,-0.0819,-0.0874,-0.0916,-0.094,-0.0931,-0.0921,-0.0868,-0.0732,-0.0689,-0.0483,-0.0219,-0.0107,0.005,0.0064,0.0268,0.0243,0.0294,0.0434,0.0433,0.0331,0,0,0,0,0,0,-0.0713,-0.0773,-0.081,-0.0839,-0.0871,-0.0898,-0.0893,-0.086,-0.0774,-0.0707,-0.055,-0.048,-0.0213,-0.0297,0.0046,0.0087,0.0131,0.0366,0.0368,0.0435,0.0434,0.0433,0.0328,0,0,0,0,0]}]]